Theta_e
276 276 276 277 277 278 279 279 279 280 280 281 281 282 281 281 279 280 283 287 288 291 293 290 294 299 301 303 307 309 311 310 311 318 319 323 325 315 312 315 318 319 319 319 318 318 318 318 319 319 321 322 322 323 322 322 322 323 323 323 325 326 326 326 326 326 326 326 326 326 326 325 326 326
276 276 275 276 275 276 276 277 278 279 279 279 280 281 282 283 281 282 282 285 290 290 293 293 292 296 298 301 302 304 306 305 310 317 320 322 324 315 311 313 316 318 318 318 319 318 318 317 317 317 318 319 320 322 321 321 321 323 324 325 327 327 326 326 326 325 324 326 326 326 326 325 326 325
275 275 274 275 275 277 278 278 278 279 280 281 282 282 284 284 285 285 285 283 289 293 290 293 296 296 299 301 301 301 302 302 306 314 320 321 315 310 312 308 314 316 316 317 317 317 316 316 316 316 316 319 320 321 320 320 320 321 323 325 326 326 326 325 324 324 324 325 326 326 326 325 326 327
275 274 274 274 275 276 276 276 276 276 277 278 279 280 281 283 285 286 287 286 286 292 292 293 295 298 297 298 298 298 300 301 298 310 319 320 310 315 319 308 311 313 315 316 316 316 315 315 316 315 316 317 319 319 319 320 320 320 322 324 325 325 323 323 323 323 323 323 324 325 324 324 325 326
274 273 274 274 275 275 275 275 275 275 275 277 278 281 282 282 284 286 287 286 288 291 294 294 294 296 297 296 298 298 299 299 301 303 315 320 318 319 319 316 307 311 313 314 315 315 315 315 315 315 315 316 317 318 319 318 318 319 321 322 323 324 324 323 322 321 321 323 323 323 323 323 324 324
273 273 273 273 274 275 274 274 274 276 278 279 280 281 281 282 284 287 288 287 287 288 292 292 295 295 297 295 298 297 298 299 300 302 310 318 318 318 318 318 315 309 311 313 314 314 314 315 315 315 315 316 317 317 317 317 316 318 319 319 319 320 321 322 322 321 320 322 323 323 323 323 323 323
272 272 272 273 273 274 273 273 273 274 274 275 275 277 280 282 284 287 290 289 287 288 290 293 292 294 295 295 295 297 299 299 300 300 304 314 316 317 318 317 317 309 311 313 313 313 313 314 314 314 315 315 315 316 316 316 315 316 317 318 317 317 317 319 319 319 320 322 324 323 322 323 323 323
271 271 271 272 272 273 272 272 272 273 274 274 275 276 278 281 283 285 289 291 289 290 289 291 292 293 293 294 296 298 299 299 299 300 302 312 315 316 316 316 315 311 311 312 312 312 312 313 313 313 313 314 314 315 314 314 314 314 314 315 315 316 315 316 317 317 317 320 322 323 322 323 322 322
270 270 271 271 272 272 271 271 272 272 272 273 275 278 281 282 283 286 289 290 290 289 288 290 292 293 293 295 295 297 296 297 298 300 302 308 313 315 316 316 313 308 310 310 310 311 311 312 312 313 313 313 314 314 313 313 313 313 313 313 313 315 315 315 315 314 315 317 317 320 322 322 322 321
270 270 270 271 271 271 271 271 271 272 272 273 274 276 278 281 283 285 287 290 290 290 289 290 289 292 292 291 293 295 296 296 295 297 300 306 311 313 314 315 313 312 312 312 312 309 310 310 311 312 312 313 313 313 313 312 311 310 310 311 312 313 314 314 314 314 314 314 315 317 319 321 321 320
270 270 271 271 271 271 271 271 271 271 271 272 273 275 276 277 277 279 283 288 289 289 289 289 290 290 292 292 291 294 297 297 297 296 296 301 306 310 312 311 313 313 313 310 308 310 311 309 311 310 311 312 312 312 312 311 310 308 309 310 311 312 313 313 313 313 313 313 314 314 314 316 319 320
270 270 271 271 271 272 272 272 272 272 272 272 273 274 276 277 277 278 282 286 288 288 288 288 288 290 290 291 293 295 295 294 295 297 297 299 304 307 310 311 310 311 312 312 312 308 308 308 310 308 309 310 310 310 309 309 308 306 309 310 311 311 311 312 312 311 311 311 312 313 313 314 315 318
270 270 271 271 272 272 274 275 275 275 275 273 272 274 276 278 280 280 281 284 286 287 287 286 288 288 289 290 291 291 292 292 293 296 298 300 306 308 308 309 311 311 310 310 311 312 312 311 312 312 312 313 309 309 307 307 304 306 308 310 310 311 311 311 311 310 310 311 311 312 313 312 313 314
271 271 271 271 274 275 276 276 277 277 278 278 277 275 276 276 278 279 281 284 286 286 285 285 286 286 286 288 290 291 292 295 296 295 296 297 304 307 306 306 307 310 311 309 309 311 313 312 311 312 312 312 309 312 312 312 309 306 308 309 310 310 310 310 310 310 310 310 310 311 311 311 311 312
272 272 272 272 273 275 275 275 277 278 278 279 279 280 281 281 279 278 278 280 285 285 285 286 286 285 286 287 289 290 293 295 295 296 297 298 303 303 302 300 303 309 311 309 308 308 310 312 310 311 311 311 312 312 312 308 306 307 308 309 309 309 309 310 309 309 309 309 310 310 310 310 310 311
273 273 273 274 274 274 274 274 274 276 278 279 279 280 281 282 283 284 282 281 282 285 285 285 285 286 286 286 287 288 290 293 296 297 298 298 302 303 302 302 301 306 311 309 307 307 308 311 311 310 311 312 312 312 310 307 307 307 309 309 309 309 309 309 309 309 309 309 309 309 309 309 310 310
273 273 273 274 274 275 277 276 275 275 275 278 279 279 280 282 283 284 285 286 284 285 285 285 285 286 286 286 286 288 288 291 293 297 297 299 302 304 303 302 303 306 310 309 306 305 307 309 307 309 311 311 312 310 307 307 307 308 308 308 308 308 308 308 308 308 308 308 309 308 308 309 309 308
274 274 274 274 274 275 275 275 275 275 275 275 275 275 276 277 280 284 285 285 286 287 286 286 285 287 288 286 287 288 290 288 286 289 295 298 301 303 304 305 306 308 312 308 306 303 304 307 308 308 310 309 310 310 308 306 307 308 308 308 308 307 308 308 308 308 307 307 308 308 308 307 307 307
275 275 275 275 275 275 275 276 276 275 275 275 275 275 276 279 281 282 283 285 286 287 288 287 287 288 288 288 288 289 290 289 289 289 290 297 302 304 304 305 305 307 310 309 306 301 303 307 307 307 308 308 309 308 307 306 306 307 307 308 308 308 308 307 307 307 307 307 307 307 306 306 306 306
274 275 276 276 276 276 276 277 279 279 277 275 274 274 275 276 279 283 286 288 288 288 289 289 288 288 289 289 289 289 290 290 291 289 290 292 298 301 300 300 302 304 307 307 305 302 302 305 306 306 307 307 307 305 306 305 306 307 307 307 307 307 307 307 307 307 307 306 306 306 306 306 305 305
273 274 274 275 275 276 276 278 280 280 280 276 275 275 275 278 280 281 283 285 287 289 289 289 290 290 290 291 291 291 292 290 290 287 286 286 293 300 299 298 301 302 304 305 306 303 300 303 305 303 303 304 303 304 305 306 306 306 307 307 307 307 307 306 306 306 306 306 306 306 305 305 304 303
273 274 276 277 276 276 277 279 280 281 279 277 276 276 276 276 277 279 281 283 285 286 288 289 289 290 290 290 291 291 291 291 291 287 285 287 290 297 300 298 300 302 302 303 304 302 300 302 303 301 300 299 300 303 304 305 306 304 305 306 306 306 306 306 306 305 305 305 306 306 305 305 303 305
273 273 275 277 277 277 278 281 281 281 280 277 277 277 277 277 277 279 282 282 283 284 285 286 287 287 288 288 288 288 290 290 290 290 288 288 288 295 299 300 300 299 300 301 303 301 298 299 299 299 298 298 295 300 301 302 304 305 305 306 308 304 304 305 305 305 305 305 305 305 305 304 304 308
273 273 274 275 278 280 281 281 282 282 282 280 279 278 278 277 278 281 282 283 284 284 285 286 286 286 287 287 288 288 288 289 289 290 291 291 290 295 300 300 300 299 299 300 302 301 299 300 298 301 302 299 295 297 300 301 301 302 305 305 304 303 303 303 304 304 304 305 305 305 304 304 305 309
272 273 274 275 278 280 281 281 282 283 283 283 281 280 279 280 282 284 283 283 284 284 285 285 285 286 286 286 287 287 288 288 289 291 292 293 294 297 301 301 301 301 302 301 302 302 299 300 299 300 302 301 298 297 299 302 301 301 302 305 304 304 304 305 304 306 303 303 304 304 304 304 305 308
272 273 273 274 276 279 280 280 281 282 283 284 282 282 284 284 285 283 284 284 284 285 285 285 285 285 285 285 286 286 287 288 289 292 295 295 297 300 304 303 302 301 301 301 301 302 301 300 300 300 301 298 295 296 295 298 300 301 302 304 305 304 303 303 303 305 306 306 306 305 305 304 305 305
271 273 273 274 277 278 279 280 281 282 283 283 282 284 285 285 285 284 284 284 284 284 284 284 284 284 285 285 285 286 287 289 291 294 296 298 299 300 303 306 308 306 305 303 301 301 301 301 300 301 300 300 297 296 297 297 296 299 300 301 302 303 304 305 303 303 304 305 305 303 303 303 304 304
272 272 273 274 277 278 279 280 281 282 282 281 283 285 285 285 285 284 284 284 284 284 284 284 284 284 285 286 286 286 288 289 293 296 298 300 301 302 303 305 302 303 304 303 302 302 302 301 300 301 301 299 298 297 297 300 296 297 298 300 301 302 303 303 303 301 301 303 304 304 303 303 304 305
272 274 277 278 279 279 280 281 281 282 282 283 283 284 284 284 284 284 284 284 284 284 283 284 284 285 286 286 287 288 290 292 295 297 298 299 299 300 299 298 294 295 301 300 299 300 301 301 301 300 300 300 300 299 300 297 295 296 298 297 297 299 301 304 304 302 302 303 304 303 303 304 303 303
275 276 277 277 278 278 278 278 278 278 279 281 282 283 284 284 284 284 283 284 283 283 284 284 285 285 287 287 288 289 290 291 294 296 297 298 296 292 294 295 295 296 298 298 299 300 301 301 301 300 300 300 301 299 298 295 294 296 295 297 298 297 299 301 302 302 300 301 301 301 304 305 304 301
271 272 273 274 277 277 279 279 280 280 281 280 281 282 283 284 284 284 284 284 284 284 285 285 286 286 287 288 288 288 289 291 295 297 296 296 294 296 298 297 295 296 297 297 298 299 300 301 300 300 299 299 299 298 297 297 296 295 296 297 297 295 297 299 299 300 300 300 300 300 300 302 301 300
268 269 272 274 276 277 277 277 278 279 280 280 281 282 283 284 284 284 285 285 285 285 286 286 287 286 287 286 287 288 290 293 296 296 295 296 296 296 297 296 295 295 295 295 294 292 293 298 299 301 300 300 298 297 298 298 297 296 296 296 297 298 297 297 298 298 298 298 299 299 300 300 300 300
266 266 267 268 269 270 270 272 274 276 278 281 284 284 284 284 284 284 284 284 284 285 285 285 285 285 286 286 287 288 291 294 295 295 296 296 296 296 297 296 294 294 293 293 293 293 294 295 296 299 298 299 300 298 298 297 297 298 297 296 297 296 297 298 299 296 295 297 298 298 298 298 299 300
264 264 264 265 266 267 267 268 269 270 271 273 275 282 284 284 284 284 284 285 285 285 285 285 285 285 286 286 287 289 292 294 295 294 294 295 296 295 296 295 295 295 294 294 294 294 293 293 293 292 291 290 291 296 300 299 297 298 298 297 298 297 297 298 298 295 296 298 298 297 297 297 299 300
263 262 262 263 264 265 266 266 266 268 268 269 271 273 278 285 285 285 285 285 286 285 285 285 286 286 286 286 288 290 293 293 294 294 294 295 295 296 296 295 294 294 294 294 294 294 294 294 295 294 293 293 294 293 292 292 299 297 298 298 299 298 296 297 297 295 296 298 299 297 296 296 296 297
261 262 262 262 263 264 264 265 266 266 266 267 268 270 272 275 282 285 285 286 286 286 286 286 286 286 286 287 289 291 293 293 293 294 294 294 295 295 296 295 294 294 295 295 294 294 295 295 295 295 294 294 294 293 295 293 293 300 298 297 299 298 296 296 295 296 296 298 298 298 296 295 295 296
261 261 262 262 263 263 263 264 264 265 266 266 267 268 269 271 273 277 283 286 286 286 286 286 286 286 287 288 290 291 292 292 293 293 293 294 295 295 294 293 293 294 295 295 295 294 295 295 295 296 295 294 293 293 294 295 290 294 299 299 298 298 296 295 295 294 296 297 298 298 298 297 295 295
260 261 261 262 262 263 263 264 264 264 265 266 266 267 268 269 271 273 276 282 285 286 286 286 286 286 287 289 291 292 293 293 293 293 293 294 294 294 294 293 293 294 294 294 294 294 295 295 295 296 296 294 293 293 293 293 293 293 294 298 298 296 295 295 294 294 294 296 297 298 298 297 297 297
260 261 261 262 262 263 263 263 264 264 264 265 265 265 266 267 269 270 273 277 283 286 286 286 286 286 287 289 291 292 292 293 293 293 293 294 294 294 293 293 293 294 294 293 293 294 295 295 295 296 296 296 295 295 296 294 293 294 292 294 296 295 295 296 295 296 295 295 296 296 294 290 292 294
259 261 261 262 262 263 263 264 264 264 264 265 265 265 266 266 267 268 270 273 277 282 286 286 286 286 288 290 290 292 292 292 293 294 293 294 294 294 294 293 293 293 293 292 292 293 294 295 295 297 297 299 297 296 294 291 289 290 293 293 294 296 295 296 296 295 295 296 296 295 293 291 293 290
259 260 261 262 262 263 263 263 264 264 264 265 265 266 266 266 266 267 269 271 274 276 283 286 286 286 288 290 291 291 292 292 293 293 293 294 293 293 292 291 293 293 292 291 291 292 294 296 296 293 292 292 292 294 293 292 290 290 292 293 291 293 294 295 297 296 295 294 295 295 294 293 292 290
258 259 261 261 262 263 264 264 264 264 264 265 265 265 265 266 266 269 268 269 270 273 278 285 286 287 288 290 291 291 291 292 292 292 292 293 293 293 291 292 292 292 292 291 292 293 295 294 290 291 293 294 296 294 292 292 292 292 293 293 292 291 292 292 294 295 298 295 295 294 294 293 293 291
258 259 260 261 262 263 264 264 264 264 264 265 265 265 265 265 265 266 266 266 267 269 271 274 283 287 289 290 291 292 291 292 292 292 292 292 293 293 292 293 293 293 293 293 294 294 292 291 294 294 294 296 296 296 294 294 294 293 291 292 292 293 293 291 292 292 293 294 295 297 297 296 293 291
257 258 260 261 261 262 263 264 264 264 265 265 265 265 265 265 265 265 265 265 266 266 268 270 274 284 289 290 290 291 292 292 292 292 292 292 292 293 293 293 293 293 293 293 292 291 292 293 294 294 294 295 296 296 295 294 293 292 292 292 291 291 291 292 292 291 291 292 293 293 294 295 296 296
257 258 259 260 261 262 263 264 264 264 265 265 265 265 265 265 265 265 265 265 265 266 266 268 270 275 284 289 290 290 291 290 291 292 292 292 292 292 293 293 293 292 292 292 291 290 291 292 293 294 294 295 295 295 295 294 293 291 291 290 289 290 291 291 291 291 292 292 292 292 292 292 291 288
Wind_Speed
16 16 19 16 17 17 19 17 17 19 18 18 18 16 16 16 20 19 18 16 20 10 10 12 11 8 10 9 9 10 11 13 15 14 17 18 17 24 31 31 31 32 33 33 33 34 35 36 36 39 45 43 42 39 39 37 37 38 36 34 32 32 32 33 33 31 32 31 31 31 31 30 28 29
16 18 18 17 18 18 18 18 19 19 19 19 19 18 17 15 21 20 20 19 12 14 9 10 14 9 10 9 11 11 13 16 18 16 19 19 17 26 30 31 31 31 31 32 32 33 34 35 37 37 39 42 42 37 37 37 34 35 35 35 35 35 35 35 33 33 31 29 29 29 30 31 31 30
17 18 19 18 16 15 15 13 12 12 13 15 16 16 14 17 18 21 20 21 12 12 12 11 11 11 10 9 10 11 12 14 19 17 19 19 24 27 26 31 31 31 31 32 32 32 33 34 33 32 34 37 41 39 36 35 34 34 34 35 34 34 34 33 33 33 30 31 32 31 29 30 30 29
15 18 19 18 17 14 17 15 17 15 18 17 18 18 16 18 18 18 17 19 21 8 11 10 11 10 12 12 12 14 12 12 17 17 20 21 24 20 17 29 32 32 32 33 33 35 35 36 37 35 33 32 34 38 36 34 34 33 32 33 33 34 32 31 31 31 30 31 31 31 30 29 29 29
17 17 19 19 20 18 20 17 17 17 20 20 18 16 16 16 17 16 18 18 18 13 10 11 11 9 9 13 11 14 13 13 14 15 19 20 18 17 17 18 31 32 33 33 34 36 40 40 39 40 37 34 33 32 34 34 33 33 34 32 32 33 32 31 30 30 31 30 29 31 31 29 28 29
15 16 18 19 18 18 20 19 18 15 14 15 15 15 14 15 16 16 17 17 15 20 8 13 9 9 8 13 10 10 13 14 13 16 17 17 17 17 16 16 20 34 32 34 35 34 35 39 40 40 40 37 37 35 33 33 32 32 33 31 30 30 31 32 31 31 31 30 29 30 30 30 30 29
16 18 17 18 17 16 18 19 18 17 18 16 18 19 15 14 16 16 18 18 17 18 15 12 13 9 9 10 11 9 11 13 13 16 18 15 14 15 17 16 17 33 34 37 36 36 36 35 37 37 37 34 34 37 36 35 33 30 31 32 31 30 29 31 32 31 31 31 30 29 29 30 31 30
16 17 17 17 17 17 19 19 17 17 17 16 15 17 18 17 19 18 18 18 14 12 15 10 10 7 9 10 9 9 9 12 13 13 16 16 15 15 16 17 16 31 42 40 40 38 35 35 34 34 33 33 31 31 32 34 34 32 31 31 31 29 28 29 31 31 30 30 30 29 29 29 29 29
18 18 17 17 17 17 19 18 17 16 20 17 18 17 14 13 15 14 16 15 11 12 15 12 8 9 9 9 10 8 10 12 12 12 14 15 12 17 16 15 15 26 40 42 41 40 39 36 34 35 33 34 32 31 31 32 32 32 32 31 30 29 28 28 29 30 30 30 29 28 29 30 29 29
17 17 17 17 17 18 18 17 17 17 19 18 17 18 16 14 13 15 16 14 11 12 13 12 10 9 10 9 9 7 7 10 13 13 13 15 12 14 17 16 16 14 13 16 23 27 30 34 34 31 31 32 32 31 30 30 30 30 31 31 31 30 29 28 29 30 30 30 29 29 29 30 29 29
17 17 17 17 17 17 18 19 19 18 19 17 19 18 17 15 15 16 17 14 11 10 12 11 10 9 9 9 11 5 7 10 12 13 13 14 9 9 17 17 16 17 17 16 18 18 19 23 24 28 29 30 31 31 30 30 31 30 29 29 30 30 29 28 28 29 29 29 28 29 29 29 29 29
18 18 18 18 18 19 19 18 19 18 18 16 18 17 15 15 15 15 16 14 11 10 11 12 11 10 10 9 9 7 6 9 11 11 11 15 10 10 10 17 18 16 19 17 17 17 18 19 22 26 26 27 27 29 28 30 29 31 29 29 29 29 29 28 28 28 28 28 28 29 29 28 28 28
18 18 18 18 19 19 25 29 26 25 22 17 17 17 15 15 13 13 14 15 10 8 8 8 6 7 6 8 7 7 7 10 13 9 8 15 12 11 13 11 17 19 19 19 18 17 17 16 14 14 14 17 23 23 26 25 30 30 29 29 30 28 28 28 28 28 28 28 28 28 28 28 28 28
18 18 19 17 26 29 29 29 30 30 30 31 24 19 17 16 17 15 14 13 9 7 8 9 9 10 9 8 6 7 9 10 10 11 11 16 12 13 14 13 12 18 20 18 19 18 17 19 17 16 16 16 19 16 17 17 21 27 30 30 29 29 28 29 28 28 28 28 28 29 28 28 28 28
17 17 17 17 21 24 27 26 31 29 30 29 30 31 31 27 20 16 17 16 9 8 8 9 9 9 9 8 7 9 9 8 10 12 12 14 13 14 16 14 12 16 23 19 19 17 17 19 19 18 17 17 16 16 17 23 25 28 28 29 28 27 28 28 29 28 28 28 27 27 28 28 28 28
16 19 18 18 16 15 16 18 18 23 28 28 29 29 29 30 33 31 21 17 14 11 8 8 10 10 9 8 7 8 8 9 10 12 12 14 14 14 16 15 16 13 21 21 19 18 15 17 19 19 18 18 17 18 20 27 28 28 28 29 29 29 29 29 28 28 28 28 28 27 28 29 28 28
18 18 18 19 16 18 24 24 19 21 20 26 31 30 31 32 32 31 32 31 21 14 13 12 13 11 8 9 9 6 8 10 13 11 12 13 15 15 16 14 16 18 20 21 20 20 17 17 18 18 17 16 15 17 22 25 27 29 28 29 29 29 29 29 29 29 29 29 30 29 29 28 29 28
19 18 20 17 18 17 18 16 20 18 17 18 17 17 17 18 23 27 30 31 31 24 16 14 13 13 8 11 8 6 6 7 10 12 13 12 15 16 19 18 18 19 21 22 19 16 16 16 17 17 15 15 15 14 22 29 29 29 29 29 29 29 29 28 28 29 29 28 28 28 30 31 29 29
17 20 19 19 18 20 18 16 18 18 16 15 16 16 18 16 15 17 17 17 16 16 16 16 15 14 12 11 9 9 9 10 9 10 15 18 16 16 12 17 19 20 20 22 21 21 18 16 18 17 15 15 15 14 21 28 29 30 29 29 29 29 30 29 29 29 29 30 31 30 28 29 29 28
16 16 17 18 17 18 18 21 28 26 18 15 16 16 17 17 18 13 11 14 15 15 14 12 12 12 13 12 10 10 11 11 10 11 14 17 18 15 13 15 17 19 17 21 20 17 17 16 18 16 13 14 14 13 14 26 30 31 30 29 29 29 29 29 29 30 30 29 28 30 31 30 29 28
16 16 18 18 18 19 19 23 27 27 26 16 17 16 16 16 14 13 11 16 20 21 22 22 19 21 21 19 20 21 24 17 13 8 11 15 15 14 15 15 19 19 16 14 18 17 17 16 16 14 13 15 14 15 15 17 27 30 31 31 30 29 30 29 29 29 30 31 31 30 29 29 28 28
15 17 27 24 20 19 19 24 28 29 24 17 16 16 16 17 16 14 12 10 11 19 22 21 21 23 22 23 25 26 26 25 18 9 15 15 13 15 16 15 15 15 16 16 16 18 16 14 14 14 8 7 5 12 13 15 20 28 27 31 31 30 30 31 31 30 30 30 31 31 31 28 26 21
15 16 19 27 25 22 22 29 28 29 24 16 16 14 15 17 17 15 13 12 12 11 11 11 12 14 17 16 14 15 22 22 19 15 15 13 14 17 16 21 18 17 14 13 17 20 14 15 14 16 13 13 3 8 11 14 14 15 16 20 23 29 29 30 30 31 32 31 30 29 29 29 26 16
15 16 16 21 25 27 28 28 28 26 28 19 15 14 15 16 17 12 12 12 10 11 12 11 10 12 11 11 11 11 11 13 14 17 15 16 16 18 14 19 22 19 14 11 18 19 16 18 17 18 20 20 13 10 11 11 13 11 14 15 13 25 28 29 27 33 31 31 32 31 30 30 26 16
15 14 15 15 21 26 26 26 26 26 25 24 16 15 15 15 14 12 10 12 15 13 12 10 9 10 10 11 11 11 12 12 13 14 15 17 19 19 14 17 21 18 18 21 25 19 17 17 16 15 12 7 6 11 11 14 13 14 13 16 15 16 16 17 15 20 29 33 33 33 32 31 29 21
16 17 16 16 20 26 26 26 27 28 27 26 16 16 23 25 26 19 14 11 10 11 11 11 10 10 10 11 10 10 12 13 14 15 15 17 19 18 15 19 22 18 16 17 24 19 19 18 21 20 16 13 11 12 11 11 12 15 14 14 16 16 16 16 14 14 17 18 20 24 27 32 28 26
17 16 17 19 27 27 28 28 27 25 28 24 17 24 26 26 28 24 15 13 13 13 13 12 12 11 11 11 12 11 12 13 15 16 16 17 17 17 16 19 21 23 20 21 20 20 21 18 19 22 20 16 17 14 14 14 11 10 11 12 13 15 15 16 17 15 13 16 16 25 26 28 27 26
16 17 17 19 29 30 30 29 28 26 26 19 24 24 25 25 23 15 14 13 14 13 14 13 13 13 12 11 12 12 12 13 15 17 17 17 18 17 16 20 19 14 21 23 21 20 21 20 19 18 19 19 19 19 18 12 10 15 18 14 14 15 16 16 16 14 12 12 13 15 15 16 17 19
16 22 31 33 32 31 31 31 28 26 26 28 27 26 25 23 13 13 13 14 13 14 14 14 13 12 12 12 13 12 11 14 16 16 14 15 15 15 12 10 6 10 17 18 16 16 17 20 22 19 16 17 19 17 16 15 14 14 15 15 11 14 16 17 17 17 16 15 16 16 17 16 15 15
31 31 32 34 34 30 26 19 15 13 14 20 23 24 22 14 13 13 13 14 14 15 14 12 12 12 11 11 10 10 12 15 16 14 13 12 10 6 7 7 6 11 17 20 19 17 16 16 19 19 17 15 16 17 15 15 11 9 10 15 11 6 9 12 14 14 16 16 15 15 14 15 17 16
17 21 22 19 23 21 25 25 24 23 22 18 16 13 12 12 14 13 12 12 13 12 11 11 11 10 10 8 8 10 13 15 15 13 12 11 12 13 12 12 11 11 13 15 14 13 15 17 17 18 19 16 12 15 15 15 16 17 15 13 16 18 15 14 14 14 14 14 12 11 11 13 14 18
17 17 18 19 12 11 11 12 10 10 11 13 13 13 11 11 11 13 15 14 12 11 10 10 9 8 8 9 10 12 14 14 12 11 13 14 14 14 13 13 14 14 13 12 9 6 10 13 17 17 19 19 19 15 14 15 16 16 15 14 14 8 10 12 12 12 13 13 12 13 14 15 15 14
15 13 12 12 12 11 11 10 10 10 10 10 11 12 9 9 10 10 10 12 13 12 10 8 7 9 9 11 11 12 13 13 12 12 13 13 14 13 14 15 13 15 16 14 11 9 8 11 12 12 6 8 16 20 19 16 14 15 17 15 14 13 15 15 14 13 12 13 15 14 13 12 13 15
11 11 11 10 11 11 11 11 10 11 11 12 13 10 10 10 9 10 10 10 10 10 10 11 10 10 11 11 12 12 13 11 11 13 14 13 14 16 16 16 15 16 19 18 16 14 11 10 10 8 8 7 4 9 17 20 17 15 15 16 16 16 15 15 15 17 17 17 17 15 14 14 12 12
10 13 12 12 11 11 11 10 11 11 11 12 12 13 12 8 10 9 10 10 9 10 10 11 11 11 11 11 12 12 12 12 11 11 11 12 14 16 17 16 16 16 17 18 17 14 15 15 14 12 8 7 5 1 10 1 17 17 14 13 14 14 13 13 14 15 17 14 13 16 14 12 12 11
12 10 10 11 12 12 12 11 12 11 11 12 12 12 12 12 9 8 9 10 10 10 11 11 11 11 10 11 12 11 11 10 12 13 12 12 14 14 16 16 17 17 18 18 18 16 16 17 17 18 17 14 14 12 13 11 9 19 21 20 17 15 14 14 14 15 16 15 16 17 16 16 14 11
11 10 9 10 11 12 11 12 12 11 11 11 11 10 11 11 11 12 10 10 10 11 11 11 10 10 9 10 10 10 9 10 12 13 14 14 14 14 14 15 16 17 17 17 18 18 17 18 18 19 19 18 18 20 18 9 4 9 17 19 16 15 15 13 13 15 16 17 16 15 16 14 13 12
12 11 10 11 10 11 11 11 11 11 10 10 10 11 10 11 11 12 13 10 8 8 9 8 9 8 8 9 10 10 9 11 11 13 14 15 14 14 15 16 15 16 17 16 16 17 18 19 19 19 20 21 22 21 17 8 7 9 14 15 17 15 15 15 15 15 14 12 13 11 7 9 12 13
12 12 12 12 12 11 12 12 12 12 12 11 12 12 12 12 12 12 11 11 9 7 7 7 8 8 8 9 9 10 10 11 12 13 13 14 15 14 14 16 16 15 16 16 15 16 17 18 19 20 22 22 24 23 20 18 14 7 5 9 13 15 15 18 19 16 15 13 10 7 3 4 6 10
13 11 12 11 12 11 10 12 12 12 12 12 11 11 12 13 12 12 12 12 12 12 8 8 8 7 7 9 8 9 9 12 14 14 14 13 14 15 15 15 16 16 15 16 16 16 17 19 20 22 23 18 8 7 9 9 7 4 6 7 18 21 18 16 16 16 15 15 13 11 9 6 7 3
13 13 12 13 11 11 11 11 11 12 12 12 12 13 12 12 12 11 12 13 13 13 11 8 7 7 6 8 9 8 10 10 11 13 14 15 15 14 17 17 14 15 17 17 18 19 21 22 19 15 13 13 16 16 13 11 11 11 13 12 12 19 18 20 17 16 15 14 14 15 16 14 11 7
13 13 13 12 12 12 12 11 12 12 12 13 13 13 13 12 12 18 15 14 12 12 13 9 6 5 5 6 9 8 9 12 11 11 12 13 14 14 17 16 15 14 17 19 20 20 16 9 14 16 15 14 14 16 17 18 18 15 12 9 6 8 14 17 18 20 19 16 14 13 12 8 6 10
13 12 13 13 13 12 11 12 11 11 11 12 13 13 12 13 13 14 12 13 12 12 11 13 9 5 5 6 7 10 8 10 12 12 12 12 14 14 14 15 16 18 18 18 16 11 10 12 13 14 12 13 14 16 19 18 14 12 11 12 13 11 9 15 16 14 14 23 29 27 21 19 14 14
12 13 13 13 12 13 13 13 12 11 11 10 11 12 12 13 13 13 12 12 12 11 12 11 12 9 6 7 6 8 10 8 10 12 12 11 12 14 15 16 17 17 15 12 11 11 13 13 13 14 14 15 14 15 17 15 14 13 15 14 11 11 12 9 9 8 10 15 21 19 22 26 29 26
13 12 12 13 13 12 11 13 12 12 11 11 11 12 13 12 12 13 12 12 11 12 11 11 11 11 10 6 7 8 9 9 7 8 11 12 11 12 13 15 14 14 13 13 15 14 12 13 13 13 14 15 14 15 14 13 14 12 12 13 15 16 14 13 14 14 14 12 17 21 14 12 1 15
Wind_Direction
266 263 262 262 265 268 269 267 265 264 262 262 263 262 265 271 278 277 272 262 262 241 215 265 264 225 253 257 263 261 259 260 257 233 216 210 208 202 205 204 206 205 204 203 203 201 201 199 205 199 186 180 178 177 175 175 177 174 174 175 174 175 174 175 179 176 180 181 176 174 172 174 173 171
266 266 264 262 264 262 259 256 254 253 254 257 256 259 259 261 264 269 269 269 246 263 233 240 270 267 268 279 287 290 287 290 278 246 220 210 209 203 203 205 204 204 203 202 200 199 198 199 200 198 188 177 171 175 174 174 176 173 172 174 175 174 176 175 173 174 178 173 173 175 173 171 172 173
267 264 262 262 260 263 267 272 277 275 273 264 260 255 251 254 255 263 263 266 250 231 256 252 252 275 278 282 290 290 288 294 291 261 224 213 207 205 201 202 202 201 200 197 194 192 188 184 181 186 181 175 169 169 174 172 173 173 172 173 173 173 175 174 171 174 174 170 174 176 175 173 171 172
266 266 265 263 262 264 269 273 275 280 274 272 271 271 269 265 263 264 257 251 262 216 254 253 266 268 285 288 285 285 287 285 287 266 232 211 207 204 206 201 200 199 197 193 190 183 179 175 171 171 176 176 173 169 172 172 171 171 171 171 170 171 174 173 170 171 172 171 173 174 173 173 171 170
266 267 266 265 265 268 268 266 270 265 263 262 259 254 253 259 264 263 253 251 259 258 248 265 266 273 279 282 275 283 287 293 290 281 251 219 205 202 204 201 198 195 192 190 186 183 176 172 169 168 173 176 174 170 170 170 170 169 169 171 171 172 173 171 169 170 172 173 172 171 172 173 170 171
269 268 267 267 267 266 267 266 266 270 277 275 268 257 253 260 264 264 259 250 254 264 249 265 262 273 264 275 278 281 292 292 295 290 283 235 201 199 199 196 195 190 187 183 179 177 178 172 169 169 171 174 170 169 170 167 168 169 168 170 172 172 171 171 169 171 173 174 173 171 171 171 172 173
272 270 268 268 270 270 268 267 269 271 275 276 275 278 277 271 267 267 260 254 252 258 262 259 270 267 269 264 286 285 283 287 291 289 286 256 206 196 195 193 190 185 180 176 174 172 173 172 169 168 169 172 171 167 166 167 167 169 169 171 172 172 171 170 170 171 173 174 174 172 171 172 172 173
273 270 270 268 268 269 269 270 271 272 269 270 266 264 266 266 267 263 261 249 249 256 269 249 260 267 274 277 281 287 286 289 287 279 284 268 212 184 183 183 185 181 174 172 168 168 168 167 166 165 166 166 169 166 166 166 166 168 168 171 172 172 171 171 170 170 171 174 175 173 172 172 172 172
272 272 271 273 272 270 270 272 272 272 274 275 280 275 267 268 275 278 263 250 246 253 260 264 257 268 266 272 283 284 292 290 285 285 278 268 226 173 170 161 164 172 170 166 166 165 163 164 164 164 165 163 165 166 167 168 166 166 167 169 170 171 171 170 169 169 171 174 174 173 172 173 173 172
271 270 269 269 269 268 267 270 272 273 275 277 270 271 273 272 272 274 269 253 246 250 258 264 266 259 264 276 263 270 274 280 286 288 285 267 236 178 159 155 151 149 154 154 156 158 159 159 162 164 163 162 163 165 167 167 166 166 166 168 169 170 171 170 169 169 171 172 173 173 172 173 173 172
269 267 267 266 264 264 265 267 268 272 274 271 271 269 273 280 283 284 283 264 249 252 263 266 263 263 258 257 271 257 258 263 264 275 287 270 231 202 159 155 156 151 153 155 153 153 154 159 160 162 163 164 164 166 168 167 166 167 167 168 168 170 171 171 171 171 171 171 171 172 173 173 173 173
261 258 258 257 257 260 261 261 261 264 265 266 268 269 269 269 267 267 273 273 252 250 257 264 267 262 264 254 253 262 254 263 259 249 257 265 231 192 175 160 153 158 154 158 162 161 158 160 161 160 162 165 166 166 167 167 167 168 167 167 168 169 171 171 171 171 170 170 170 171 172 172 172 173
254 256 253 252 255 250 261 260 263 261 261 263 267 268 270 268 255 252 253 263 258 245 250 261 272 284 279 266 259 239 231 237 252 256 251 261 232 191 164 175 161 158 159 159 160 165 162 159 162 162 162 169 167 170 171 169 169 169 168 168 168 169 170 171 171 170 170 170 169 170 171 171 171 172
256 252 254 247 251 257 264 265 264 264 264 262 261 263 264 267 277 281 282 267 246 246 248 254 261 263 261 269 265 255 244 244 255 255 251 259 240 194 170 161 175 161 156 157 162 165 165 159 161 165 168 170 169 171 173 177 170 170 169 169 168 169 170 171 170 170 169 169 169 170 171 170 171 171
270 262 255 251 251 254 260 262 263 262 263 264 265 265 261 258 257 265 263 269 269 239 236 246 248 248 258 261 268 273 273 251 246 249 249 251 236 201 170 167 163 174 156 160 159 163 165 160 162 166 167 171 175 173 175 172 168 167 167 167 167 168 170 170 170 169 168 169 170 170 168 169 170 170
267 270 264 265 262 251 256 251 255 254 262 266 266 268 267 264 259 251 250 256 263 258 250 245 245 248 247 256 256 269 283 278 258 246 250 252 239 203 176 161 168 173 162 155 160 161 166 164 162 167 171 172 176 173 170 168 169 169 168 167 168 171 169 169 169 169 168 168 169 170 169 168 170 170
269 271 266 267 259 258 254 260 257 261 260 265 262 268 272 269 258 254 253 251 251 258 256 250 251 244 246 253 251 247 268 292 293 264 244 248 238 212 177 168 156 166 169 155 159 163 168 166 166 170 174 171 169 166 168 171 170 170 170 169 170 171 170 169 169 169 170 171 171 171 168 169 168 169
276 268 267 259 264 258 258 253 254 256 252 259 258 266 263 259 260 256 249 249 248 243 245 245 246 247 228 244 252 258 272 285 282 292 278 248 240 217 185 168 164 160 165 163 152 155 169 171 166 172 173 170 170 166 173 175 173 173 172 171 170 170 169 170 170 169 170 172 172 172 169 167 167 167
279 271 266 259 262 264 259 257 248 254 248 249 253 258 263 269 257 243 241 241 240 239 239 239 241 246 241 242 252 263 264 257 263 267 279 281 254 220 192 161 163 164 168 159 155 162 169 171 169 174 169 169 170 171 173 175 174 172 172 172 171 170 170 171 172 172 172 173 172 171 170 166 165 167
285 287 283 277 269 263 259 254 255 257 252 249 250 254 258 258 261 259 251 241 232 232 234 231 233 240 242 243 244 251 256 263 269 282 288 285 263 220 187 165 166 165 171 164 158 157 165 170 168 168 163 163 165 166 171 176 174 173 171 173 172 172 172 172 173 173 172 172 174 172 169 168 167 166
291 285 281 279 276 272 266 259 258 259 257 253 251 250 253 259 258 257 257 261 257 247 241 241 238 243 248 248 246 252 256 259 261 280 285 275 276 226 182 172 168 167 161 172 161 151 157 171 166 157 163 167 163 164 174 176 175 173 172 172 173 173 172 173 174 175 174 172 171 173 171 167 165 165
284 280 280 279 277 273 269 266 260 261 260 257 252 250 253 257 260 258 258 256 250 253 254 251 246 247 250 253 256 256 258 259 257 242 257 267 274 249 187 169 165 152 162 174 158 150 163 156 157 148 140 135 160 164 169 173 176 172 172 172 173 174 174 173 173 172 173 173 174 173 169 168 163 163
283 281 280 278 275 272 268 269 266 259 257 252 248 247 248 251 251 249 248 246 246 247 248 244 242 245 249 252 250 250 251 252 252 245 246 260 253 250 202 164 160 157 172 171 162 149 154 152 153 145 143 159 147 170 165 173 175 176 170 172 173 175 174 174 173 173 174 171 172 170 169 166 163 168
274 271 271 277 273 272 272 273 276 272 259 249 242 240 242 244 247 244 242 240 239 247 241 241 232 236 239 242 240 245 251 256 254 254 245 241 242 247 212 174 162 163 160 176 171 152 157 159 160 169 166 158 167 178 164 173 164 178 171 167 172 174 173 173 175 174 174 172 170 169 169 168 166 166
282 278 279 279 277 276 277 277 278 277 270 260 249 239 240 242 252 252 244 242 234 240 242 239 239 241 241 243 244 246 253 252 257 254 243 234 234 239 215 178 164 166 168 174 173 147 158 159 160 164 167 154 129 150 170 165 165 170 176 168 169 177 169 173 176 177 174 172 171 171 170 170 169 167
297 291 288 284 280 280 279 280 281 281 282 272 257 248 247 249 249 248 245 244 238 235 238 238 236 237 239 244 243 246 250 253 254 253 242 230 228 234 221 190 168 164 166 174 167 154 150 166 167 166 164 153 154 153 148 169 170 175 173 175 170 170 171 167 170 182 176 173 174 173 172 171 170 167
296 293 288 284 283 280 278 277 276 276 277 279 267 256 251 248 246 245 241 236 236 241 243 240 239 235 238 240 244 244 250 252 250 247 231 224 222 225 225 203 183 165 159 164 174 162 160 163 171 170 168 162 155 163 164 163 172 166 166 172 170 167 168 166 172 178 182 173 172 170 168 170 169 168
295 292 287 281 281 279 276 275 275 275 274 271 272 268 258 254 250 242 239 237 241 243 243 238 233 233 231 237 241 242 244 251 249 238 220 216 216 218 220 204 188 166 154 165 170 168 166 161 168 177 164 158 160 168 175 172 156 170 171 170 167 168 170 172 173 169 172 168 161 166 167 174 174 169
298 292 290 285 282 279 277 277 277 277 274 269 268 266 264 254 241 241 236 240 240 238 238 235 233 232 233 234 239 245 252 257 251 230 213 209 210 214 220 210 141 124 155 165 165 165 167 162 168 168 161 163 166 172 168 163 157 171 167 155 169 178 176 175 170 169 169 170 172 171 175 172 173 174
304 298 291 285 281 279 277 277 272 264 264 265 264 262 259 247 237 234 236 236 236 237 237 233 233 237 239 240 246 255 256 254 242 219 202 197 193 145 138 148 141 146 159 166 169 167 164 166 166 163 163 166 167 161 159 148 160 158 161 169 159 135 176 171 169 170 166 172 175 173 171 170 172 174
317 308 305 291 278 268 269 269 270 272 272 270 267 259 251 245 235 228 231 232 235 238 236 238 236 242 247 254 258 254 252 245 231 202 186 179 176 176 174 168 148 145 160 167 166 163 161 160 164 167 166 162 156 161 159 159 159 162 168 165 157 172 178 178 172 172 171 168 163 162 164 172 179 184
322 316 315 323 316 282 272 271 264 261 257 255 255 250 242 232 220 224 230 238 242 240 239 240 243 247 248 250 249 250 248 237 212 185 179 183 179 177 169 168 164 149 151 158 151 132 144 160 167 174 172 166 164 161 154 161 163 166 166 168 175 154 141 165 167 168 165 157 162 173 177 177 180 187
325 321 325 339 339 349 343 342 336 333 322 306 271 240 231 219 217 218 215 224 230 233 233 231 233 241 242 247 248 251 245 224 196 180 179 179 174 174 173 169 156 152 150 152 152 146 146 158 166 166 166 179 169 157 155 162 172 169 168 171 166 156 168 174 170 160 154 163 173 173 179 183 185 185
330 333 335 337 338 338 343 340 337 331 331 330 328 307 234 220 221 214 218 223 230 230 230 235 235 237 240 246 249 247 234 208 188 178 177 176 172 172 177 169 165 158 155 157 160 155 146 133 118 92 80 61 36 166 169 165 166 174 176 171 171 172 173 167 168 164 168 176 172 174 182 189 190 188
344 347 341 340 338 339 336 338 335 333 332 333 328 327 319 262 225 222 221 216 218 222 225 228 229 232 234 241 246 240 219 197 178 174 176 169 175 176 172 169 164 161 159 159 158 156 152 149 145 132 106 105 103 341 331 274 161 168 167 175 179 169 166 171 166 169 172 171 168 176 184 184 187 191
353 341 342 346 343 340 339 339 336 335 334 329 326 324 324 324 306 247 225 217 211 217 220 223 226 228 231 235 241 229 211 186 175 170 171 172 176 178 171 169 163 162 162 162 160 158 157 157 156 158 163 167 171 178 209 233 186 174 171 179 182 172 168 168 167 167 173 176 181 180 180 184 191 183
342 338 338 342 346 344 335 337 338 335 330 324 322 319 318 313 313 311 291 238 219 219 220 221 225 226 228 234 232 220 204 183 174 173 171 172 174 173 169 164 162 162 164 165 161 159 158 162 167 167 167 173 180 190 194 158 223 225 183 175 173 172 163 161 162 173 184 181 183 185 184 180 179 181
345 335 335 342 340 337 340 335 332 333 329 324 321 318 316 307 305 303 301 287 241 226 225 224 232 229 232 232 225 209 203 185 175 175 176 172 173 172 169 162 161 164 163 160 162 163 164 163 170 173 172 178 185 191 180 166 171 212 205 179 173 168 159 159 167 176 183 186 184 182 165 173 184 188
341 339 337 337 338 338 333 334 331 329 331 331 329 324 319 316 313 312 312 312 303 260 240 238 237 230 229 228 220 203 195 186 178 180 178 176 172 168 165 163 162 165 160 161 163 166 167 168 171 177 182 185 190 187 181 175 184 157 161 185 168 158 170 174 177 176 172 176 180 160 131 53 64 128
334 336 336 334 336 334 334 332 330 327 324 325 327 321 320 321 319 318 320 321 319 307 269 242 233 228 229 223 214 202 194 190 184 180 180 176 176 168 165 165 163 160 158 160 163 167 173 179 179 184 188 188 164 107 102 90 72 87 155 188 184 177 176 176 175 167 177 180 164 159 166 147 154 137
330 336 336 337 331 338 339 333 330 325 326 328 325 330 330 321 322 321 324 321 318 310 291 251 232 223 228 220 205 203 192 191 190 184 181 178 175 174 164 159 160 161 161 165 169 174 185 190 182 145 107 108 115 112 115 130 151 164 182 192 203 192 177 176 174 176 175 164 164 177 177 175 162 142
329 328 332 331 334 337 340 337 335 332 330 333 334 332 328 329 325 327 325 323 324 321 320 294 240 229 223 226 201 200 201 189 186 185 184 179 175 171 163 161 160 163 167 171 179 186 178 132 106 117 139 137 137 154 171 178 181 178 176 165 157 189 187 193 190 179 167 159 166 175 177 175 165 184
330 331 332 332 333 332 339 342 338 338 335 334 335 335 331 333 334 334 336 332 330 329 327 324 305 255 226 221 210 195 201 196 187 182 179 179 174 168 167 169 169 172 177 179 177 155 129 136 147 147 150 159 168 175 185 187 175 156 157 166 178 177 184 191 191 193 186 185 182 181 179 178 173 202
331 329 330 332 330 332 338 344 343 342 337 333 329 332 337 337 333 335 332 327 327 325 322 317 317 299 242 213 218 200 194 201 190 181 178 177 175 173 173 175 177 177 171 154 140 147 159 161 161 156 162 180 180 185 191 176 167 166 174 172 160 163 175 173 185 188 190 208 221 216 196 186 191 200
329 325 327 329 329 329 332 342 345 343 341 338 337 338 336 336 336 331 331 330 324 323 318 316 314 316 303 240 205 208 197 188 189 187 177 173 176 180 180 175 172 169 162 156 156 160 160 160 166 175 181 183 184 190 186 173 170 162 160 154 167 177 177 170 177 185 196 206 212 210 213 220 78 45